This is the latest recevied weather packets stored in our database for station/object KA3RQR. If no packets are shown the sender has not sent any weather packets the latest 10 day(s).
| Time | Temp. | Humidity | Pressure | Rain* | Wind** | Luminosity | Snow |
|---|---|---|---|---|---|---|---|
| 1778093080 | 18.89° C | 86% | 1008.7 hPa | 0 mm | - | 166 W/m² | - |
| 1778092777 | 18.89° C | 86% | 1008.6 hPa | 0 mm | - | 150 W/m² | - |
| 1778092472 | 18.89° C | 86% | 1008.6 hPa | 0 mm | - | 131 W/m² | - |
| 1778092170 | 18.89° C | 85% | 1008.7 hPa | 0 mm | - | 143 W/m² | - |
| 1778091867 | 18.89° C | 87% | 1008.8 hPa | 0 mm | - | 147 W/m² | - |
| 1778091564 | 18.89° C | 86% | 1008.9 hPa | 0 mm | - | 153 W/m² | - |
| 1778091262 | 18.89° C | 86% | 1008.8 hPa | 0 mm | - | 152 W/m² | - |
| 1778090959 | 18.89° C | 87% | 1008.9 hPa | 0 mm | - | 146 W/m² | - |
| 1778090655 | 18.89° C | 87% | 1008.7 hPa | 0 mm | - | 147 W/m² | - |
| 1778090352 | 18.89° C | 87% | 1009 hPa | 0 mm | - | 170 W/m² | - |
| 1778090049 | 18.89° C | 87% | 1009.2 hPa | 0 mm | - | 197 W/m² | - |
| 1778089745 | 18.33° C | 86% | 1009.2 hPa | 0 mm | - | 201 W/m² | - |
| 1778089443 | 18.33° C | 87% | 1009.2 hPa | 0 mm | - | 207 W/m² | - |
| 1778089140 | 18.33° C | 88% | 1009 hPa | 0 mm | - | 207 W/m² | - |
| 1778088836 | 18.33° C | 88% | 1009.2 hPa | 0 mm | - | 155 W/m² | - |
| 1778088534 | 17.78° C | 89% | 1009.5 hPa | 0 mm | - | 161 W/m² | - |
| 1778088230 | 17.78° C | 89% | 1009.1 hPa | 0 mm | - | 186 W/m² | - |
| 1778087928 | 17.78° C | 89% | 1009.4 hPa | 0 mm | - | 126 W/m² | - |
| 1778087625 | 17.78° C | 90% | 1009.4 hPa | 0 mm | - | 162 W/m² | - |
| 1778087323 | 17.78° C | 90% | 1009.5 hPa | 0 mm | - | 97 W/m² | - |
| 1778087019 | 17.78° C | 90% | 1009.1 hPa | 0 mm | - | 161 W/m² | - |
| 1778086718 | 17.78° C | 90% | 1009.5 hPa | 0 mm | - | 160 W/m² | - |
| 1778086415 | 17.78° C | 91% | 1009.2 hPa | 0 mm | - | 130 W/m² | - |
| 1778086111 | 17.78° C | 91% | 1009.2 hPa | 0 mm | - | 167 W/m² | - |
| 1778085808 | 17.22° C | 92% | 1009.4 hPa | 0 mm | - | 155 W/m² | - |
* Rain latest hour (hover to see other rain measurements)
** Current wind speed in m/s (hover to see current wind gust speed)